Regional Weather Roundup
Issued by NWS

Home | Current Version | Previous Version | Graphics & Text | Print | Product List | Glossary On
Versions: 1 2 3 4 5 6 7 8 9 10 11 12 13 14 15 16 17 18 19 20 21 22 23 24 25 26 27 28 29 30 31 32 33 34 35 36 37 38 39 40 41 42 43 44 45 46 47 48 49 50
327
ASUS44 KLIX 011010
RWRLA
LOUISIANA WEATHER ROUNDUP
NATIONAL WEATHER SERVICE NEW ORLEANS LA
500 AM CDT MON SEP 01 2014

NOTE: "FAIR" INDICATES FEW OR NO CLOUDS BELOW 12,000 FEET WITH NO
      SIGNIFICANT WEATHER AND/OR OBSTRUCTIONS TO VISIBILITY.
      SKY/WX - SKY CONDITION AND SIGNIFICANT WEATHER.
      TMP - AIR TEMPERATURE.    DP   - DEWPOINT TEMPERATURE.
      RH  - RELATIVE HUMIDITY.  PRES - PRESSURE.
      HX  - HEAT INDEX.         WCI  - WIND CHILL INDEX.

*  THESE STATIONS ARE NOT NWS OR FAA STATIONS AND ARE NOT UNDER
   NWS QUALITY CONTROL.

LAZ040-048-061>063-065-066-069-011100-
SOUTHEAST LOUISIANA

CITY           SKY/WX    TMP DP  RH WIND       PRES   REMARKS
N.O. AUDUBON     N/A     81  79  94 MISG        N/A
N.O. INTL ARPT MOCLDY    81  76  84 E3        30.00R
N.O. LAKEFRONT PTCLDY    81  77  88 E5        30.00S
N.O. DOWNTOWN* FAIR      82  73  74 SE6       30.01R
SLIDELL        CLEAR     76  73  91 CALM      30.01S
BATON ROUGE    CLEAR     75  73  93 E6        30.01R
BOOTHVILLE     PTCLDY    82  78  88 SE6       30.01R
BELLE CHASSE   PTCLDY    81  75  82 SE3       30.00R
BOGALUSA*        N/A     73  70  90 CALM      30.05R
GALLIANO*      NOT AVBL
NEW ROADS*     FAIR      75  74  99 CALM      30.01R FOG
GONZALES*      FAIR      76  76 100 CALM      30.00S FOG
HAMMOND*       CLEAR     75  72  88 CALM      30.03R
HOUMA*         CLEAR     76  73  88 CALM      30.00R
PORT FOURCHON* NOT AVBL

$$

LAZ041-044-053-054-011100-
SOUTHWEST LOUISIANA

CITY           SKY/WX    TMP DP  RH WIND       PRES   REMARKS
LAKE CHARLES   CLEAR     77  74  90 E3        29.96S
LAFAYETTE      CLOUDY    77  76  96 CALM      29.99S FOG
PATTERSON        N/A     77  75  94 E3        30.02R
SALT POINT       N/A     83  79  88 CALM      29.98R
NEW IBERIA     CLEAR     78  76  93 NE6       29.99S
CHENAULT AIRPK NOT AVBL

$$

LAZ027-028-011100-
CENTRAL LOUISIANA

CITY           SKY/WX    TMP DP  RH WIND       PRES   REMARKS
FORT POLK      CLOUDY    77  76  96 S8        29.99R
ALEXANDRIA INT PTCLDY    73  73 100 SE5       29.98S
ALEXANDRIA     MOCLDY    74  71  91 CALM      30.00S

$$

LAZ001-002-011100-
NORTHWEST LOUISIANA

CITY           SKY/WX    TMP DP  RH WIND       PRES   REMARKS
SHREVEPORT     CLOUDY    75  72  90 CALM      29.97R
BARKSDALE AFB  PTCLDY    72  72 100 SE3       29.98R
DTN SHREVEPORT CLOUDY    74  72  93 SE6       29.98R

$$

LAZ014-016-011100-
NORTHEAST LOUISIANA

CITY           SKY/WX    TMP DP  RH WIND       PRES   REMARKS
MONROE         PTCLDY    73  71  93 CALM      30.01R
TALLULAH       CLEAR     73  72  96 SE5       30.02R

$$




USA.gov is the U.S. government's official web portal to all federal, state and local government web resources and services.